Regional Weather Roundup
Issued by NWS

Home | Current Version | Previous Version | Text Only | Print | Product List | Glossary Off
Versions: 1 2 3 4 5 6 7 8 9 10 11 12 13 14 15 16 17 18 19 20 21 22 23 24 25 26 27

000
ASUS45 KSLC 231710
RWRUT

UTAH REGIONAL WEATHER ROUNDUP
NATIONAL WEATHER SERVICE SALT LAKE CITY UT
1100 AM MDT WED APR 23 2014

UTZ001>011-023>025-231800-

NORTHERN UTAH

CITY           SKY/WX    TMP DP  RH WIND       PRES   REMARKS
DUGWAY         PTSUNNY   47  17  29 NW12G17   30.05S
HILL AFB       SUNNY     43  19  37 N13G20    30.03R
LOGAN          MOSUNNY   43  22  43 W12       30.00R
OGDEN          SUNNY     46  22  38 NW17      30.02R
PROVO AIRPORT  MOSUNNY   46  19  34 NW14      30.04R
SALT LAKE CITY MOSUNNY   45  24  43 NW9       30.03R
VERNAL         PTSUNNY   46  22  38 E7        29.90R
WENDOVER       SUNNY     48  16  27 W13G21    30.04R
HEBER CITY     MOSUNNY   43  12  28 NW12G18   29.99R
WEST JORDAN    MOSUNNY   45  27  49 NW12G23   30.04R

$$

UTZ012>022-026-027-231800-

SOUTHERN UTAH

CITY           SKY/WX    TMP DP  RH WIND       PRES   REMARKS
BRYCE CANYON   MOSUNNY   41  15  35 W14G25    29.98R
CEDAR CITY     MOSUNNY   48  22  35 NE15      29.99S
MILFORD        MOSUNNY   49  21  33 NE14      30.02R
MOAB/CYNLANDS  SUNNY     54  17  23 NW18G28   29.88R
PRICE          CLOUDY    43   9  24 NW13G23   29.97R
ST GEORGE      MOSUNNY   63  23  22 SE9       29.94S

$$

REGIONAL REPORTS     COLORADO/ARIZONA

CITY           SKY/WX    TMP DP  RH WIND       PRES   REMARKS
CRAIG, CO      CLOUDY    40  30  67 NW13      29.91R WCI  32
GRAND JUNCTION PTSUNNY   54  16  22 W17G23    29.86R
RIFLE          MOSUNNY   56  17  21 N12       29.84S
MONTROSE       PTSUNNY   57  23  26 NW13G22   29.86R
CORTEZ         MOSUNNY   60  14  16 W16G23    29.85F
PAGE, AZ       CLOUDY    57  19  22 NW9       29.92R
GRAND CANYON   CLOUDY    50   7  17 NW13G21   29.97R
KINGMAN        SUNNY     64   6  10 N21G26    29.94R
FLAGSTAFF      CLOUDY    52  12  20 W14G21    29.96R

$$

REGIONAL REPORTS    NEVADA/IDAHO/WYOMING

CITY           SKY/WX    TMP DP  RH WIND       PRES   REMARKS
LAS VEGAS, NV  MOSUNNY   67  13  12 N18G24    29.92R
ELY            PTSUNNY   40  15  36 VRB6      30.05R
ELKO           MOSUNNY   41  25  53 SW5       30.06R
POCATELLO, ID  MOSUNNY   42  29  59 W16       29.99R
BURLEY         PTSUNNY   44  28  53 W15G23    30.01R
EVANSTON, WY   CLOUDY    34  18  52 W16G25    29.98R WCI  24
ROCK SPRINGS   MOSUNNY   39  13  34 W31       29.91R WCI  27

$$



USA.gov is the U.S. government's official web portal to all federal, state and local government web resources and services.